DW0226 Weather Reports


Display with metric or nautical units.
time (UTC)temp
F
wind
direction
speed
MPH
gust
MPH
rain 1hr
in
rain 24hr
in
rain mn
in
humidity
%
barometer
mb
20260506082057 65 164 1.0 7.0 0.00 0.00 0.00 78 1009.8
20260506081023 65 226 1.0 10.0 0.00 0.00 0.00 77 1009.8
20260506073020 66 205 3.0 12.0 0.00 0.00 0.00 76 1009.9
20260506072026 66 227 2.0 12.0 0.00 0.00 0.00 76 1010.1
20260506071057 66 329 1.0 7.0 0.00 0.00 0.00 75 1010.1
20260506062023 67 209 3.0 10.0 0.00 0.00 0.00 73 1010.0
20260506061029 68 213 4.0 7.0 0.00 0.00 0.00 73 1010.2
20260506051025 70 165 5.0 14.0 0.00 0.00 0.00 70 1010.5
20260506045022 70 136 4.0 10.0 0.00 0.00 0.00 69 1010.6
20260506044029 70 140 3.0 11.0 0.00 0.00 0.00 68 1010.6
20260506043021 70 178 3.0 12.0 0.00 0.00 0.00 67 1010.6
20260506042028 70 205 1.0 9.0 0.00 0.00 0.00 66 1010.6
20260506041018 71 178 5.0 10.0 0.00 0.00 0.00 65 1010.7
20260506040029 71 256 4.0 10.0 0.00 0.00 0.00 65 1010.6
20260506035024 71 222 3.0 11.0 0.00 0.00 0.00 64 1010.5
20260506034032 71 171 6.0 11.0 0.00 0.00 0.00 63 1010.5
20260506033023 72 184 1.0 9.0 0.00 0.00 0.00 61 1010.6
20260506032030 72 172 2.0 10.0 0.00 0.00 0.00 60 1010.5
20260506031022 72 246 2.0 7.0 0.00 0.00 0.00 60 1010.5
20260506030029 72 238 2.0 5.0 0.00 0.00 0.00 60 1010.6
20260506025054 72 210 3.0 6.0 0.00 0.00 0.00 59 1010.6
20260506024103 72 270 3.0 7.0 0.00 0.00 0.00 59 1010.6
20260506023031 72 245 2.0 5.0 0.00 0.00 0.00 58 1010.7
20260506022017 73 143 2.0 6.0 0.00 0.00 0.00 57 1010.7
20260506021026 73 156 3.0 7.0 0.00 0.00 0.00 57 1010.6
20260506020034 73 264 2.0 6.0 0.00 0.00 0.00 56 1010.6
20260506015024 73 236 1.0 6.0 0.00 0.00 0.00 55 1010.5
20260506014052 74 165 2.0 7.0 0.00 0.00 0.00 55 1010.4
20260506013039 74 202 3.0 10.0 0.00 0.00 0.00 54 1010.3
20260506012025 74 223 1.0 9.0 0.00 0.00 0.00 53 1010.2
20260506011037 74 133 1.0 6.0 0.00 0.00 0.00 52 1010.2
20260506010023 74 150 2.0 7.0 0.00 0.00 0.00 51 1010.1
20260506005030 75 192 2.0 6.0 0.00 0.00 0.00 51 1009.8
20260506004036 75 241 0.0 6.0 0.00 0.00 0.00 50 1009.6
20260506003047 75 186 1.0 6.0 0.00 0.00 0.00 50 1009.7
20260506002036 76 178 3.0 6.0 0.00 0.00 0.00 49 1009.5
20260506001023 76 261 3.0 9.0 0.00 0.00 0.00 49 1009.5
20260506000032 76 217 3.0 6.0 0.00 0.00 0.00 47 1009.4
20260505235025 77 235 3.0 9.0 0.00 0.00 0.00 47 1009.3
20260505234015 78 161 5.0 12.0 0.00 0.00 0.00 46 1009.1
20260505233046 78 249 2.0 7.0 0.00 0.00 0.00 45 1009.1
20260505232035 79 158 2.0 7.0 0.00 0.00 0.00 43 1009.0
20260505231026 80 219 2.0 11.0 0.00 0.00 0.00 42 1008.9
20260505230057 80 198 4.0 10.0 0.00 0.00 0.00 42 1008.9
20260505225042 80 218 3.0 9.0 0.00 0.00 0.00 43 1008.8
20260505224031 80 202 4.0 7.0 0.00 0.00 0.00 42 1008.8
20260505223021 80 239 3.0 11.0 0.00 0.00 0.00 42 1008.8
20260505222051 81 250 3.0 7.0 0.00 0.00 0.00 40 1008.7
20260505221037 81 239 3.0 14.0 0.00 0.00 0.00 38 1008.7
20260505220025 82 201 6.0 12.0 0.00 0.00 0.00 38 1008.7
20260505215031 82 138 2.0 7.0 0.00 0.00 0.00 39 1008.7
20260505214026 82 180 3.0 12.0 0.00 0.00 0.00 34 1008.8
20260505213058 82 237 10.0 19.0 0.00 0.00 0.00 35 1008.8
20260505212023 82 178 5.0 10.0 0.00 0.00 0.00 37 1008.6
20260505211030 83 198 6.0 17.0 0.00 0.00 0.00 34 1008.7
20260505210044 83 223 7.0 15.0 0.00 0.00 0.00 33 1008.5
20260505205034 84 186 6.0 13.0 0.00 0.00 0.00 33 1008.5
20260505204023 83 61 4.0 15.0 0.00 0.00 0.00 34 1008.6
20260505203031 83 224 4.0 13.0 0.00 0.00 0.00 37 1008.7
20260505202023 84 269 2.0 14.0 0.00 0.00 0.00 39 1008.7
20260505201051 84 222 5.0 12.0 0.00 0.00 0.00 37 1008.9
20260505200022 84 211 3.0 12.0 0.00 0.00 0.00 39 1009.0
20260505195028 83 228 7.0 14.0 0.00 0.00 0.00 39 1009.1
20260505194022 83 238 3.0 13.0 0.00 0.00 0.00 41 1009.3
20260505193030 83 154 2.0 13.0 0.00 0.00 0.00 39 1009.5
20260505192020 83 149 5.0 15.0 0.00 0.00 0.00 40 1009.8
20260505191027 83 179 7.0 13.0 0.00 0.00 0.00 41 1010.0
20260505190020 83 163 5.0 13.0 0.00 0.00 0.00 41 1010.1
20260505185028 82 154 6.0 15.0 0.00 0.00 0.00 42 1010.2
20260505184038 82 225 5.0 13.0 0.00 0.00 0.00 42 1010.2
20260505183030 83 158 8.0 15.0 0.00 0.00 0.00 41 1010.4
20260505182056 82 246 9.0 16.0 0.00 0.00 0.00 40 1010.3
20260505181023 82 146 5.0 15.0 0.00 0.00 0.00 42 1010.6
20260505180030 82 218 4.0 11.0 0.00 0.00 0.00 43 1010.6
20260505175023 82 175 5.0 10.0 0.00 0.00 0.00 43 1010.6
20260505174029 81 216 5.0 12.0 0.00 0.00 0.00 45 1010.7
20260505173020 81 242 0.0 11.0 0.00 0.00 0.00 47 1010.7
20260505172030 81 248 8.0 14.0 0.00 0.00 0.00 46 1010.8
20260505171043 80 208 4.0 12.0 0.00 0.00 0.00 47 1011.1
20260505170031 80 205 6.0 10.0 0.00 0.00 0.00 47 1011.2
20260505165022 80 180 4.0 13.0 0.00 0.00 0.00 50 1011.3
20260505164029 79 247 5.0 13.0 0.00 0.00 0.00 47 1011.5
20260505163025 79 226 7.0 15.0 0.00 0.00 0.00 47 1011.5
20260505162031 79 263 4.0 10.0 0.00 0.00 0.00 51 1011.5
20260505161038 78 129 4.0 10.0 0.00 0.00 0.00 51 1011.6
20260505153029 75 223 6.0 11.0 0.00 0.00 0.00 58 1012.2
20260505152035 74 194 6.0 13.0 0.00 0.00 0.00 57 1012.0
20260505151024 74 219 3.0 11.0 0.00 0.00 0.00 59 1012.0
20260505125018 66 244 5.0 13.0 0.00 0.00 0.00 68 1012.5
20260505124029 66 236 5.0 12.0 0.00 0.00 0.00 69 1012.4
20260505123021 66 227 3.0 9.0 0.00 0.00 0.00 70 1012.5
20260505122028 65 208 6.0 10.0 0.00 0.00 0.00 69 1012.3
20260505121035 64 235 3.0 6.0 0.00 0.00 0.00 71 1012.4
20260505120021 65 259 2.0 6.0 0.00 0.00 0.00 71 1012.3
20260505115036 64 247 2.0 7.0 0.00 0.00 0.00 71 1012.2
20260505114022 64 290 2.0 7.0 0.00 0.00 0.00 71 1012.0
20260505113031 63 205 2.0 6.0 0.00 0.00 0.00 72 1011.9
20260505112054 63 221 2.0 4.0 0.00 0.00 0.00 73 1012.0
20260505111021 63 190 0.0 4.0 0.00 0.00 0.00 73 1011.9
20260505102026 62 215 2.0 5.0 0.00 0.00 0.00 72 1011.4
20260505101033 62 251 2.0 9.0 0.00 0.00 0.00 72 1011.4
20260505100044 62 199 3.0 5.0 0.00 0.00 0.00 72 1011.3
20260505095032 62 190 2.0 8.0 0.00 0.00 0.00 72 1011.2
20260505094025 62 256 2.0 7.0 0.00 0.00 0.00 72 1011.2
20260505093032 62 234 3.0 6.0 0.00 0.00 0.00 72 1011.2
20260505092017 63 294 2.0 5.0 0.00 0.00 0.00 71 1011.2
20260505091027 63 292 1.0 7.0 0.00 0.00 0.00 71 1011.1
20260505090024 63 126 0.0 6.0 0.00 0.00 0.00 71 1011.1
20260505085052 63 252 2.0 6.0 0.00 0.00 0.00 71 1011.0
20260505084021 63 265 3.0 6.0 0.00 0.00 0.00 71 1011.1
20260505083031 63 196 0.0 6.0 0.00 0.00 0.00 71 1011.0